Location: Waldport
(44.4270°N, 124.0680°W)
Time: 12:47:19
(UTC-08:00)

SPOT 5 - Pass Details

Date: 23 June 2018
Orbit: 623 x 815 km, 98.3° (Epoch: 18 November)

Event Time Altitude Azimuth Distance (km) Brightness Sun altitude
Exits shadow 22:24:44 15° 151° (SSE) 1,989 4.5 -11.4°
Maximum altitude 22:28:58 64° 72° (ENE) 874 3.2 -11.9°
Drops below altitude 10° 22:34:14 10° 352° (N) 2,399 6.5 -12.5°
Sets 22:36:38 0° 350° (N) 3,345 7.5 -12.7°
